Погода в Таскаево

Россия / Новосибирская область     55°05′53″N   78°36′39″E
темп.,
°C
ветер,
м/с
пор.,
м/с
влажн.,
%
обл.,
%
осадки,
мм/ч
давл.,
гПа
погр.,
м
10 мая, пн
пн1001:00+7всв71354100 0.0 1021336
04:00+6всв6125661 0.0 1021320
07:00+5всв61264100 0.0 1022366
10:00+8всв71157100 0.0 1023585
13:00+10всв71048100 0.0 1022889
16:00+12св794394 0.0 1021947
19:00+11св61045100 0.0 1021871
22:00+9ссв48582 0.0 1021122
11 мая, вт
вт1101:00+7ссв510610 0.0 1021187
04:00+5ссв46745 0.0 102189
07:00+5ссв49786 0.0 1022170
10:00+9ссв695767 0.0 1022660
13:00+11св675271 0.0 1022857
16:00+13с5643100 0.0 10211283
19:00+11ссв57539 0.0 1022821
22:00+9с45591 0.0 102369
12 мая, ср
ср1201:00+7ссв46679 0.0 102376
04:00+6с33771 0.0 102338
07:00+6с34800 0.0 102469
10:00+10с235934 0.0 1023434
13:00+12ссз23455 0.0 10231034
16:00+13з344259 0.0 10211137
19:00+13з3443100 0.0 10201172
22:00+11ююз3351100 0.0 101937
13 мая, чт
чт1301:00+10с3568100 0.1 1019158
04:00+8юв2286100 0.6 101889
07:00+7с1191100 1.3 101894
10:00+8с5885100 1.1 1019439
13:00+9св5774100 1.4 1019712
16:00+10ссв566978 0.0 1019668
19:00+12ссв24575 0.1 1019847
22:00+9юз3368100 0.0 101920
14 мая, пт
пт1401:00+8зсз336090 0.0 101915
04:00+8з3652100 0.0 101799
07:00+9сз5107259 0.1 1018334
10:00+10с7975100 0.0 1020565
13:00+11с5756100 0.0 1022695
16:00+13с57375 0.0 1022881
19:00+13ссз563227 0.0 1023983
22:00+10сз224384 0.0 102312